Home   Weather   Vennesla   Past weeks

Flag for Norway Past Weather in Vennesla, Norway — Yesterday and Last 2 Weeks

37 °F

Passing clouds.

Feels Like: 34 °F
Forecast: 42 / 52 °F
Wind: 5 mph from East

Location: Kristiansand / Kjevik

Current Time: Oct 26, 2016 at 7:58:36 AM

Latest Report: Oct 26, 2016 at 6:50 AM

Visibility: N/A

Pressure: 30.24 "Hg

Humidity: 100%

Dew Point: 37 °F

Location of VenneslaLocation

Past Weather in Vennesla — Graph


Vennesla Temperature Yesterday

Maximum temperature yesterday: 45 °F (at 10:50 AM)
Minimum temperature yesterday: 39 °F (at 10:50 PM)
Average temperature yesterday: 43 °F

High & Low Weather Summary for the Past Weeks

High52 °F (Oct 18, 6:50 PM)100% (Oct 16, 1:50 PM)30.54 "Hg (Oct 16, 1:50 PM)
Low37 °F (Oct 26, 5:20 AM)61% (Oct 11, 6:20 AM)29.98 "Hg (Oct 18, 4:20 PM)
Average44 °F83%30.26 "Hg
* Reported Oct 11 6:20 AM — Oct 26 6:20 AM, Vennesla, Weather by CustomWeather, © 2016

Note: Actual official high and low records may vary slightly from our data, if they occured in-between our weather recording intervals... More about our weather records


Vennesla Weather History for the Previous 24 Hours

Scroll right to see more
Time TempWeatherWind HumidityBarometerVisibility
6:20 AM
Wed, Oct 26
37 °FPassing clouds.6 mph93%30.24 "HgN/A
5:50 AM37 °FPartly cloudy.6 mph93%30.27 "HgN/A
5:20 AM37 °FMostly cloudy.5 mph93%30.27 "HgN/A
4:50 AM39 °FMostly cloudy.5 mph93%30.27 "HgN/A
4:20 AM39 °FPartly cloudy.5 mph93%30.27 "HgN/A
3:50 AM39 °FDrizzle. Mostly cloudy.6 mph93%30.27 "HgN/A
3:20 AM39 °FOvercast.5 mph93%30.30 "HgN/A
2:50 AM39 °FOvercast.6 mph93%30.30 "HgN/A
2:20 AM39 °FMostly cloudy.2 mph93%30.30 "HgN/A
1:50 AM39 °FMostly cloudy.3 mph93%30.30 "HgN/A
1:20 AM39 °FOvercast.3 mph93%30.30 "HgN/A
12:50 AM39 °FMostly cloudy.5 mph93%30.33 "HgN/A
12:20 AM39 °FMostly cloudy.5 mph93%30.33 "HgN/A
11:50 PM
Tue, Oct 25
39 °FMostly cloudy.2 mph93%30.33 "HgN/A
11:20 PM39 °FOvercast.3 mph93%30.33 "HgN/A
10:50 PM39 °FPassing clouds.5 mph93%30.33 "HgN/A
10:20 PM41 °FPartly cloudy.2 mph93%30.33 "HgN/A
9:50 PM41 °FPassing clouds.3 mph93%30.33 "HgN/A
9:20 PM41 °FPassing clouds.2 mph93%30.33 "HgN/A
8:50 PM41 °FPassing clouds.6 mph93%30.33 "HgN/A
8:20 PM41 °FPassing clouds.3 mph93%30.33 "HgN/A
7:50 PM43 °FPassing clouds.3 mph93%30.33 "HgN/A
7:20 PM43 °FPassing clouds.3 mph93%30.33 "HgN/A
6:50 PM43 °FPassing clouds.2 mph93%30.30 "HgN/A
6:20 PM45 °FPassing clouds.2 mph87%30.30 "HgN/A
5:50 PM45 °FPartly sunny.3 mph87%30.30 "HgN/A
5:20 PM45 °FDrizzle. Partly sunny.2 mph87%30.30 "HgN/A
4:50 PM45 °FDrizzle. Partly sunny.2 mph87%30.30 "HgN/A
4:20 PM45 °FPartly sunny.5 mph87%30.30 "HgN/A
3:50 PM45 °FDrizzle. Partly sunny.7 mph87%30.30 "HgN/A
3:20 PM45 °FPartly sunny.8 mph81%30.30 "HgN/A
2:50 PM45 °FBroken clouds.7 mph81%30.30 "HgN/A
2:20 PM45 °FDrizzle. Broken clouds.9 mph81%30.30 "HgN/A
1:50 PM45 °FLight rain. Partly sunny.9 mph81%30.30 "HgN/A
1:20 PM45 °FPartly sunny.9 mph87%30.30 "HgN/A
12:50 PM45 °FBroken clouds.10 mph81%30.30 "HgN/A
12:20 PM45 °FSprinkles. Partly sunny.12 mph81%30.27 "HgN/A
11:50 AM45 °FPartly sunny.14 mph81%30.27 "HgN/A
11:20 AM45 °FPartly sunny.9 mph81%30.27 "HgN/A
10:50 AM45 °FBroken clouds.9 mph81%30.27 "HgN/A
10:20 AM43 °FPartly sunny.8 mph87%30.27 "HgN/A
9:50 AM43 °FPartly sunny.6 mph87%30.27 "HgN/A
9:20 AM43 °FPartly sunny.8 mph81%30.27 "HgN/A
8:50 AM43 °FBroken clouds.8 mph81%30.24 "HgN/A
8:20 AM41 °FPartly cloudy.10 mph87%30.24 "HgN/A
7:50 AM41 °FPassing clouds.8 mph87%30.24 "HgN/A
7:20 AM41 °FPassing clouds.10 mph87%30.24 "HgN/A
Weather by CustomWeather, © 2016

See weather overviewHow to use our weather pages